Torna al catalogo

STARLINK-33571

AttivoComunicazioniVLEO
NORAD 63386·PAYLOAD·🇺🇸 United States

Lanciato Mar 26, 2025 da Vandenberg Space Force Base

Loading…

Prossimi Passaggi (prossime 24 ore)

TLE

AggiornatoSource: CelesTrak SupGP

Epoca: Sep 14, 2026, 21:34 UTC

1 63386C 25063Z   26257.89909722  .00047407  00000+0  14008-2 0  2573
2 63386  53.1580 259.9188 0001327  91.2207 105.0999 15.34362729    12

Traccia STARLINK-33571 in tempo reale con AllMySat

Download on the App Store